Radiation Dose at Monitoring Post of Fukushima Daini Nuclear Power Station
Date,Time,MP-1(microSv/h),MP-2(microSv/h),MP-3(microSv/h),MP-4(microSv/h),MP-5(microSv/h),MP-6(microSv/h),MP-7(microSv/h),Wind Direction,Wind Velocity(m/s),Rain
2018/01/31,00:00,0.325,0.198,0.326,0.313,0.288,0.166,0.101,-,CALM,No
2018/01/31,00:10,0.324,0.198,0.325,0.313,0.289,0.166,0.100,-,CALM,No
2018/01/31,00:20,0.325,0.197,0.325,0.311,0.289,0.166,0.101,-,CALM,No
2018/01/31,00:30,0.323,0.198,0.325,0.311,0.290,0.165,0.100,-,CALM,No
2018/01/31,00:40,0.324,0.197,0.325,0.314,0.289,0.166,0.099,west,0.8,No
2018/01/31,00:50,0.325,0.198,0.325,0.313,0.289,0.165,0.100,northwest,1.5,No
2018/01/31,01:00,0.324,0.197,0.325,0.312,0.288,0.165,0.100,northwest,1.6,No
2018/01/31,01:10,0.325,0.198,0.323,0.312,0.289,0.164,0.100,northwest,1.4,No
2018/01/31,01:20,0.324,0.199,0.325,0.313,0.287,0.165,0.100,northwest,1.2,No
2018/01/31,01:30,0.325,0.197,0.326,0.314,0.289,0.165,0.101,west-northwest,1.6,No
2018/01/31,01:40,0.324,0.196,0.325,0.312,0.288,0.165,0.101,west-northwest,2.2,No
2018/01/31,01:50,0.324,0.198,0.326,0.312,0.289,0.165,0.100,west-northwest,2.4,No
2018/01/31,02:00,0.325,0.196,0.325,0.312,0.289,0.165,0.100,west-northwest,2.2,No
2018/01/31,02:10,0.323,0.198,0.324,0.312,0.289,0.165,0.101,west,2.6,No
2018/01/31,02:20,0.325,0.197,0.324,0.313,0.291,0.165,0.101,west-southwest,3.5,No
2018/01/31,02:30,0.326,0.197,0.325,0.314,0.289,0.164,0.100,west,4.3,No
2018/01/31,02:40,0.324,0.199,0.324,0.313,0.288,0.165,0.101,west,3.9,No
2018/01/31,02:50,0.324,0.198,0.325,0.313,0.289,0.164,0.100,west-southwest,5.0,No
2018/01/31,03:00,0.324,0.198,0.324,0.313,0.289,0.165,0.100,west-southwest,5.3,No
2018/01/31,03:10,0.325,0.197,0.325,0.313,0.289,0.165,0.100,west-southwest,5.5,No
2018/01/31,03:20,0.324,0.198,0.324,0.313,0.291,0.165,0.100,west-southwest,5.7,No
2018/01/31,03:30,0.324,0.198,0.324,0.312,0.289,0.164,0.100,west-southwest,6.1,No
2018/01/31,03:40,0.325,0.198,0.325,0.313,0.289,0.165,0.100,west-southwest,5.5,No
2018/01/31,03:50,0.323,0.198,0.324,0.313,0.289,0.165,0.100,west-southwest,6.1,No
2018/01/31,04:00,0.324,0.197,0.325,0.313,0.289,0.165,0.100,west-southwest,6.0,No
2018/01/31,04:10,0.325,0.197,0.325,0.313,0.288,0.165,0.101,west-southwest,5.9,No
2018/01/31,04:20,0.324,0.198,0.324,0.312,0.289,0.164,0.100,west-southwest,4.7,No
2018/01/31,04:30,0.324,0.198,0.325,0.313,0.289,0.164,0.101,west-southwest,5.0,No
2018/01/31,04:40,0.325,0.197,0.325,0.312,0.289,0.165,0.100,west-southwest,5.4,No
2018/01/31,04:50,0.323,0.197,0.325,0.313,0.289,0.165,0.099,west-southwest,5.8,No
2018/01/31,05:00,0.324,0.197,0.325,0.312,0.289,0.165,0.100,southwest,5.8,No
2018/01/31,05:10,0.322,0.197,0.326,0.312,0.289,0.165,0.099,west-southwest,5.7,No
2018/01/31,05:20,0.324,0.198,0.325,0.311,0.289,0.164,0.100,southwest,5.4,No
2018/01/31,05:30,0.324,0.197,0.325,0.312,0.289,0.164,0.100,southwest,4.2,No
2018/01/31,05:40,0.324,0.198,0.325,0.312,0.289,0.165,0.100,southwest,4.8,No
2018/01/31,05:50,0.323,0.197,0.324,0.311,0.288,0.164,0.101,southwest,4.7,No
2018/01/31,06:00,0.324,0.198,0.324,0.315,0.289,0.164,0.100,southwest,6.1,No
2018/01/31,06:10,0.323,0.198,0.323,0.314,0.289,0.165,0.100,southwest,5.0,No
2018/01/31,06:20,0.324,0.197,0.324,0.313,0.288,0.165,0.099,west-southwest,4.0,No
2018/01/31,06:30,0.324,0.197,0.325,0.312,0.288,0.163,0.100,west-southwest,4.2,No
2018/01/31,06:40,0.324,0.197,0.325,0.311,0.289,0.165,0.099,southwest,3.8,No
2018/01/31,06:50,0.324,0.197,0.325,0.313,0.289,0.164,0.100,southwest,4.4,No
2018/01/31,07:00,0.324,0.197,0.324,0.312,0.288,0.164,0.100,southwest,3.4,No
2018/01/31,07:10,0.323,0.198,0.324,0.314,0.287,0.165,0.100,west-southwest,2.2,No
2018/01/31,07:20,0.323,0.197,0.325,0.312,0.288,0.165,0.100,west,2.6,No
2018/01/31,07:30,0.323,0.198,0.324,0.311,0.288,0.164,0.101,west-northwest,3.4,No
2018/01/31,07:40,0.323,0.198,0.326,0.311,0.287,0.165,0.100,west,3.3,No
2018/01/31,07:50,0.323,0.198,0.324,0.311,0.289,0.165,0.100,west,2.8,No
2018/01/31,08:00,0.323,0.198,0.324,0.312,0.287,0.165,0.100,west-northwest,1.6,No
2018/01/31,08:10,0.324,0.198,0.324,0.312,0.288,0.166,0.100,west-northwest,1.3,No
2018/01/31,08:20,0.322,0.197,0.324,0.310,0.288,0.165,0.100,west,1.3,No
2018/01/31,08:30,0.322,0.197,0.323,0.310,0.289,0.166,0.100,west,2.0,No
2018/01/31,08:40,0.323,0.197,0.325,0.312,0.289,0.164,0.100,west-southwest,1.5,No
2018/01/31,08:50,0.323,0.197,0.324,0.312,0.288,0.165,0.100,northwest,0.8,No
2018/01/31,09:00,0.323,0.197,0.325,0.311,0.289,0.164,0.101,north-northeast,1.3,No
2018/01/31,09:10,0.323,0.198,0.325,0.310,0.287,0.164,0.100,-,CALM,No
2018/01/31,09:20,0.324,0.197,0.325,0.313,0.288,0.164,0.100,south,1.8,No
2018/01/31,09:30,0.323,0.197,0.325,0.311,0.290,0.164,0.100,south-southwest,1.3,No
2018/01/31,09:40,0.324,0.196,0.324,0.311,0.288,0.165,0.100,south,2.3,No
2018/01/31,09:50,0.324,0.197,0.324,0.310,0.288,0.165,0.100,south,2.5,No
2018/01/31,10:00,0.324,0.196,0.324,0.312,0.289,0.164,0.100,south-southeast,2.4,No
2018/01/31,10:10,0.323,0.196,0.324,0.313,0.288,0.165,0.100,south-southeast,3.1,No
2018/01/31,10:20,0.321,0.197,0.323,0.311,0.287,0.165,0.099,south-southeast,3.9,No
2018/01/31,10:30,0.322,0.197,0.324,0.311,0.290,0.165,0.100,southeast,1.1,No
2018/01/31,10:40,0.321,0.197,0.324,0.314,0.289,0.165,0.100,south-southeast,2.6,No
2018/01/31,10:50,0.322,0.196,0.324,0.311,0.289,0.164,0.100,southeast,2.5,No
2018/01/31,11:00,0.321,0.196,0.324,0.311,0.290,0.164,0.101,south-southeast,2.8,No
2018/01/31,11:10,0.322,0.198,0.324,0.312,0.288,0.166,0.100,south-southeast,1.9,No
2018/01/31,11:20,0.322,0.197,0.325,0.311,0.291,0.165,0.100,south-southeast,2.3,No
2018/01/31,11:30,0.324,0.196,0.324,0.313,0.289,0.165,0.100,south-southeast,1.7,No
2018/01/31,11:40,0.325,0.197,0.323,0.313,0.292,0.166,0.100,south-southeast,2.7,No
2018/01/31,11:50,0.323,0.197,0.324,0.312,0.291,0.165,0.100,south-southeast,2.7,No
2018/01/31,12:00,0.324,0.197,0.325,0.315,0.292,0.165,0.100,south,3.2,No
2018/01/31,12:10,0.326,0.198,0.323,0.314,0.291,0.165,0.100,southeast,2.3,No
2018/01/31,12:20,0.323,0.196,0.325,0.312,0.291,0.165,0.100,south-southeast,2.9,No
2018/01/31,12:30,0.324,0.197,0.322,0.313,0.291,0.165,0.100,south-southeast,2.8,No
2018/01/31,12:40,0.321,0.197,0.323,0.313,0.291,0.166,0.100,south,3.5,No
2018/01/31,12:50,0.323,0.198,0.325,0.314,0.291,0.166,0.100,south-southeast,0.9,No
2018/01/31,13:00,0.326,0.198,0.322,0.313,0.292,0.166,0.100,south-southeast,3.3,No
2018/01/31,13:10,0.323,0.199,0.323,0.313,0.293,0.165,0.100,south-southeast,3.7,No
2018/01/31,13:20,0.325,0.198,0.326,0.313,0.291,0.165,0.100,south-southeast,2.2,No
2018/01/31,13:30,0.325,0.198,0.325,0.315,0.293,0.165,0.100,south,2.3,No
2018/01/31,13:40,0.325,0.198,0.325,0.314,0.292,0.165,0.100,south-southeast,3.2,No
2018/01/31,13:50,0.326,0.198,0.325,0.312,0.293,0.166,0.101,south-southeast,2.0,No
2018/01/31,14:00,0.324,0.197,0.322,0.314,0.292,0.166,0.100,southeast,1.2,No
2018/01/31,14:10,0.324,0.198,0.324,0.312,0.291,0.166,0.100,south-southeast,2.2,No
2018/01/31,14:20,0.323,0.197,0.325,0.312,0.292,0.166,0.100,south,1.7,No
2018/01/31,14:30,0.325,0.198,0.324,0.314,0.292,0.166,0.100,-,CALM,No
2018/01/31,14:40,0.326,0.198,0.327,0.313,0.293,0.166,0.101,south,0.7,No
2018/01/31,14:50,0.327,0.199,0.326,0.313,0.295,0.166,0.100,-,CALM,No
2018/01/31,15:00,0.325,0.199,0.324,0.316,0.295,0.166,0.100,-,CALM,No
2018/01/31,15:10,0.327,0.199,0.326,0.314,0.293,0.165,0.100,-,CALM,No
2018/01/31,15:20,0.327,0.199,0.327,0.313,0.295,0.167,0.100,-,CALM,No
2018/01/31,15:30,0.326,0.199,0.326,0.315,0.294,0.166,0.101,south-southeast,1.1,No
2018/01/31,15:40,0.326,0.198,0.325,0.314,0.295,0.167,0.100,-,CALM,No
2018/01/31,15:50,0.325,0.198,0.326,0.313,0.293,0.166,0.100,-,CALM,No
2018/01/31,16:00,0.326,0.198,0.326,0.313,0.294,0.166,0.100,-,CALM,No
2018/01/31,16:10,0.326,0.199,0.325,0.315,0.294,0.165,0.100,southwest,1.0,No
2018/01/31,16:20,0.327,0.198,0.325,0.313,0.293,0.166,0.099,-,CALM,No
2018/01/31,16:30,0.324,0.198,0.326,0.313,0.295,0.167,0.099,-,CALM,No
2018/01/31,16:40,0.324,0.199,0.327,0.314,0.293,0.166,0.099,west,0.7,No
2018/01/31,16:50,0.327,0.199,0.325,0.314,0.295,0.166,0.100,southwest,1.8,No
2018/01/31,17:00,0.326,0.198,0.327,0.313,0.295,0.166,0.100,south,1.3,No
2018/01/31,17:10,0.326,0.198,0.326,0.314,0.293,0.167,0.100,west-southwest,1.8,No
2018/01/31,17:20,0.327,0.199,0.326,0.313,0.295,0.166,0.100,west-northwest,1.6,No
2018/01/31,17:30,0.327,0.200,0.326,0.316,0.294,0.166,0.100,west,1.3,No
2018/01/31,17:40,0.327,0.199,0.327,0.314,0.294,0.166,0.099,northwest,1.1,No
2018/01/31,17:50,0.328,0.198,0.328,0.315,0.294,0.166,0.100,west,1.2,No
2018/01/31,18:00,0.327,0.198,0.327,0.313,0.294,0.166,0.099,west-southwest,0.8,No
2018/01/31,18:10,0.327,0.199,0.327,0.313,0.295,0.166,0.100,west-southwest,3.2,No
2018/01/31,18:20,0.327,0.199,0.327,0.314,0.294,0.166,0.100,west-southwest,1.6,No
2018/01/31,18:30,0.327,0.199,0.326,0.315,0.292,0.166,0.100,west,2.7,No
2018/01/31,18:40,0.327,0.198,0.327,0.315,0.294,0.167,0.100,west,3.8,No
2018/01/31,18:50,0.327,0.199,0.326,0.314,0.295,0.166,0.100,west-northwest,5.1,No
2018/01/31,19:00,0.326,0.199,0.327,0.314,0.294,0.166,0.101,west-northwest,4.2,No
2018/01/31,19:10,0.328,0.198,0.326,0.315,0.294,0.166,0.100,northwest,4.4,No
2018/01/31,19:20,0.328,0.200,0.328,0.314,0.294,0.166,0.100,northwest,3.7,No
2018/01/31,19:30,0.328,0.200,0.328,0.314,0.294,0.166,0.101,northwest,3.5,No
2018/01/31,19:40,0.327,0.199,0.328,0.313,0.294,0.165,0.100,west-northwest,3.9,No
2018/01/31,19:50,0.328,0.200,0.326,0.314,0.293,0.166,0.100,west-northwest,7.8,No
2018/01/31,20:00,0.328,0.199,0.328,0.314,0.293,0.167,0.101,west-northwest,4.2,No
2018/01/31,20:10,0.328,0.199,0.328,0.315,0.294,0.167,0.100,northwest,2.3,No
2018/01/31,20:20,0.327,0.198,0.326,0.314,0.294,0.166,0.100,northwest,3.3,No
2018/01/31,20:30,0.327,0.199,0.329,0.313,0.294,0.166,0.099,west-northwest,4.5,No
2018/01/31,20:40,0.326,0.199,0.327,0.314,0.294,0.165,0.100,west-northwest,6.7,No
2018/01/31,20:50,0.326,0.199,0.328,0.315,0.293,0.166,0.101,northwest,7.4,No
2018/01/31,21:00,0.327,0.199,0.328,0.313,0.294,0.166,0.100,northwest,7.7,No
2018/01/31,21:10,0.327,0.199,0.327,0.314,0.293,0.166,0.100,northwest,7.3,No
2018/01/31,21:20,0.328,0.198,0.329,0.314,0.294,0.167,0.100,northwest,7.8,No
2018/01/31,21:30,0.327,0.200,0.328,0.315,0.294,0.167,0.100,northwest,8.4,No
2018/01/31,21:40,0.327,0.199,0.326,0.314,0.295,0.166,0.100,northwest,7.4,No
2018/01/31,21:50,0.328,0.199,0.327,0.313,0.296,0.167,0.101,northwest,7.8,No
2018/01/31,22:00,0.328,0.199,0.328,0.315,0.295,0.167,0.100,northwest,7.0,No
2018/01/31,22:10,0.327,0.200,0.328,0.315,0.295,0.167,0.099,northwest,6.6,No
2018/01/31,22:20,0.328,0.199,0.329,0.315,0.294,0.166,0.101,northwest,6.7,No
2018/01/31,22:30,0.327,0.199,0.328,0.315,0.295,0.166,0.100,northwest,6.2,No
2018/01/31,22:40,0.327,0.199,0.328,0.314,0.294,0.166,0.101,northwest,5.5,No
2018/01/31,22:50,0.328,0.200,0.327,0.315,0.294,0.166,0.100,northwest,3.3,No
2018/01/31,23:00,0.329,0.199,0.328,0.314,0.294,0.165,0.101,northwest,4.7,No
2018/01/31,23:10,0.328,0.199,0.328,0.313,0.294,0.166,0.100,north-northwest,2.6,No
2018/01/31,23:20,0.328,0.199,0.327,0.315,0.295,0.165,0.101,north-northeast,1.8,No
2018/01/31,23:30,0.328,0.199,0.327,0.315,0.293,0.166,0.101,north-northeast,3.9,No
2018/01/31,23:40,0.329,0.198,0.326,0.314,0.294,0.167,0.100,north-northeast,4.3,No
2018/01/31,23:50,0.327,0.200,0.328,0.316,0.294,0.166,0.101,north-northeast,4.9,No
